| time (UTC) | temp C | wind direction | speed KPH | gust KPH | rain 1hr cm | rain 24hr cm | rain mn cm | humidity % | barometer mb |
| 20260505140329 | 6 | 244 | 1.6 | 16.1 | 0.00 | 0.00 | 0.00 | 60 | 1019.3 |
| 20260505124813 | 5 | 252 | 3.2 | 17.7 | 0.00 | 0.00 | 0.00 | 60 | 1019.1 |
| 20260505123329 | 5 | 264 | 3.2 | 20.9 | 0.00 | 0.00 | 0.00 | 59 | 1019.1 |
| 20260505121822 | 5 | 270 | 9.7 | 14.5 | 0.00 | 0.00 | 0.00 | 57 | 1019.2 |
| 20260505120315 | 5 | 263 | 3.2 | 17.7 | 0.00 | 0.00 | 0.00 | 56 | 1019.1 |
| 20260505114838 | 5 | 257 | 8.0 | 20.9 | 0.00 | 0.00 | 0.00 | 55 | 1019.1 |
| 20260505113324 | 5 | 257 | 6.4 | 22.5 | 0.00 | 0.00 | 0.00 | 54 | 1019.0 |
| 20260505111817 | 6 | 278 | 6.4 | 22.5 | 0.00 | 0.00 | 0.00 | 52 | 1019.1 |
| 20260505110311 | 6 | 251 | 4.8 | 17.7 | 0.00 | 0.00 | 0.00 | 51 | 1019.3 |
| 20260505101813 | 6 | 250 | 1.6 | 12.9 | 0.00 | 0.00 | 0.00 | 49 | 1019.4 |
| 20260505100312 | 6 | 252 | 6.4 | 14.5 | 0.00 | 0.00 | 0.00 | 49 | 1019.3 |
| 20260505094826 | 6 | 257 | 4.8 | 11.3 | 0.00 | 0.00 | 0.00 | 49 | 1019.3 |
| 20260505093322 | 6 | 254 | 3.2 | 6.4 | 0.00 | 0.00 | 0.00 | 49 | 1019.4 |
| 20260505091814 | 6 | 254 | 3.2 | 12.9 | 0.00 | 0.00 | 0.00 | 49 | 1019.4 |
| 20260505090350 | 6 | 253 | 1.6 | 11.3 | 0.00 | 0.00 | 0.00 | 48 | 1019.8 |
| 20260505084831 | 6 | 255 | 1.6 | 12.9 | 0.00 | 0.00 | 0.00 | 47 | 1020.2 |
| 20260505083332 | 6 | 253 | 4.8 | 14.5 | 0.00 | 0.00 | 0.00 | 47 | 1020.5 |
| 20260505081826 | 7 | 243 | 1.6 | 12.9 | 0.00 | 0.00 | 0.00 | 46 | 1020.5 |
| 20260505080323 | 7 | 241 | 3.2 | 8.0 | 0.00 | 0.00 | 0.00 | 46 | 1020.7 |
| 20260505074841 | 7 | 271 | 1.6 | 14.5 | 0.00 | 0.00 | 0.00 | 45 | 1020.8 |
| 20260505073335 | 7 | 291 | 6.4 | 17.7 | 0.00 | 0.00 | 0.00 | 44 | 1021.1 |
| 20260505071822 | 7 | 249 | 9.7 | 20.9 | 0.00 | 0.00 | 0.00 | 42 | 1020.8 |
| 20260505070316 | 7 | 268 | 4.8 | 22.5 | 0.00 | 0.00 | 0.00 | 39 | 1020.7 |
| 20260505064812 | 7 | 285 | 4.8 | 16.1 | 0.00 | 0.00 | 0.00 | 37 | 1020.8 |
| 20260505063327 | 7 | 246 | 6.4 | 14.5 | 0.00 | 0.00 | 0.00 | 36 | 1020.6 |
| 20260505061819 | 8 | 272 | 6.4 | 19.3 | 0.00 | 0.00 | 0.00 | 35 | 1020.4 |
| 20260505060323 | 8 | 262 | 4.8 | 22.5 | 0.00 | 0.00 | 0.00 | 33 | 1020.6 |
| 20260505054846 | 8 | 278 | 8.0 | 16.1 | 0.00 | 0.00 | 0.00 | 31 | 1020.7 |
| 20260505053321 | 9 | 272 | 9.7 | 25.7 | 0.00 | 0.00 | 0.00 | 30 | 1020.7 |
| 20260505051820 | 9 | 225 | 6.4 | 14.5 | 0.00 | 0.00 | 0.00 | 29 | 1020.7 |
| 20260505050342 | 10 | 286 | 9.7 | 17.7 | 0.00 | 0.00 | 0.00 | 28 | 1020.6 |
| 20260505040317 | 10 | 260 | 6.4 | 20.9 | 0.00 | 0.00 | 0.00 | 31 | 1020.2 |
| 20260505034815 | 10 | 265 | 1.6 | 4.8 | 0.00 | 0.00 | 0.00 | 32 | 1020.3 |
| 20260505033330 | 10 | 265 | 0.0 | 4.8 | 0.00 | 0.00 | 0.00 | 31 | 1020.1 |
| 20260505031823 | 11 | 265 | 0.0 | 4.8 | 0.00 | 0.00 | 0.00 | 30 | 1020.2 |
| 20260505030318 | 11 | 264 | 3.2 | 12.9 | 0.00 | 0.00 | 0.00 | 30 | 1020.2 |
| 20260505024832 | 11 | 264 | 4.8 | 14.5 | 0.00 | 0.00 | 0.00 | 29 | 1019.9 |
| 20260505023328 | 11 | 252 | 4.8 | 17.7 | 0.00 | 0.00 | 0.00 | 28 | 1019.9 |
| 20260505021812 | 11 | 255 | 1.6 | 14.5 | 0.00 | 0.00 | 0.00 | 28 | 1020.0 |
| 20260505020327 | 11 | 266 | 4.8 | 19.3 | 0.00 | 0.00 | 0.00 | 27 | 1020.1 |
| 20260505014822 | 12 | 266 | 8.0 | 29.0 | 0.00 | 0.00 | 0.00 | 26 | 1020.0 |
| 20260505013317 | 12 | 284 | 11.3 | 22.5 | 0.00 | 0.00 | 0.00 | 25 | 1020.1 |
| 20260505011830 | 12 | 259 | 12.9 | 30.6 | 0.00 | 0.00 | 0.00 | 23 | 1020.3 |
| 20260505010344 | 12 | 260 | 11.3 | 29.0 | 0.00 | 0.00 | 0.00 | 21 | 1019.9 |
| 20260505004817 | 13 | 263 | 14.5 | 24.1 | 0.00 | 0.00 | 0.00 | 21 | 1020.0 |
| 20260505003311 | 13 | 236 | 11.3 | 24.1 | 0.00 | 0.00 | 0.00 | 20 | 1020.2 |
| 20260505001824 | 13 | 247 | 11.3 | 27.4 | 0.00 | 0.00 | 0.00 | 18 | 1020.3 |
| 20260505000318 | 13 | 285 | 12.9 | 25.7 | 0.00 | 0.00 | 0.00 | 18 | 1020.3 |
| 20260504234831 | 13 | 248 | 11.3 | 32.2 | 0.00 | 0.00 | 0.00 | 17 | 1020.3 |
| 20260504233328 | 14 | 264 | 11.3 | 30.6 | 0.00 | 0.00 | 0.00 | 16 | 1020.2 |
| 20260504231841 | 14 | 239 | 12.9 | 37.0 | 0.00 | 0.00 | 0.00 | 15 | 1020.3 |
| 20260504230336 | 16 | 212 | 11.3 | 37.0 | 0.00 | 0.00 | 0.00 | 14 | 1020.2 |
| 20260504224829 | 15 | 266 | 8.0 | 30.6 | 0.00 | 0.00 | 0.00 | 16 | 1020.3 |
| 20260504223324 | 15 | 229 | 6.4 | 24.1 | 0.00 | 0.00 | 0.00 | 14 | 1020.4 |
| 20260504221816 | 15 | 246 | 16.1 | 29.0 | 0.00 | 0.00 | 0.00 | 16 | 1020.5 |
| 20260504220331 | 15 | 199 | 11.3 | 25.7 | 0.00 | 0.00 | 0.00 | 20 | 1020.6 |
| 20260504214829 | 14 | 268 | 11.3 | 27.4 | 0.00 | 0.00 | 0.00 | 21 | 1021.0 |
| 20260504213324 | 13 | 256 | 9.7 | 24.1 | 0.00 | 0.00 | 0.00 | 20 | 1021.4 |
| 20260504211817 | 14 | 269 | 11.3 | 25.7 | 0.00 | 0.00 | 0.00 | 19 | 1021.6 |
| 20260504210330 | 13 | 203 | 9.7 | 25.7 | 0.00 | 0.00 | 0.00 | 21 | 1021.7 |
| 20260504204824 | 13 | 253 | 9.7 | 25.7 | 0.00 | 0.00 | 0.00 | 18 | 1021.8 |
| 20260504203339 | 13 | 257 | 11.3 | 29.0 | 0.00 | 0.00 | 0.00 | 18 | 1022.2 |
| 20260504201832 | 13 | 256 | 9.7 | 29.0 | 0.00 | 0.00 | 0.00 | 20 | 1022.4 |
| 20260504200318 | 13 | 249 | 8.0 | 24.1 | 0.00 | 0.00 | 0.00 | 21 | 1022.6 |
| 20260504194812 | 13 | 233 | 11.3 | 27.4 | 0.00 | 0.00 | 0.00 | 19 | 1022.7 |
| 20260504193334 | 13 | 231 | 11.3 | 22.5 | 0.00 | 0.00 | 0.00 | 19 | 1022.5 |
| 20260504191826 | 13 | 257 | 9.7 | 27.4 | 0.00 | 0.00 | 0.00 | 20 | 1022.7 |
| 20260504190318 | 13 | 267 | 9.7 | 20.9 | 0.00 | 0.00 | 0.00 | 19 | 1022.8 |
| 20260504184852 | 13 | 276 | 6.4 | 20.9 | 0.00 | 0.00 | 0.00 | 21 | 1022.7 |
| 20260504183347 | 13 | 278 | 11.3 | 27.4 | 0.00 | 0.00 | 0.00 | 21 | 1022.9 |
| 20260504181837 | 13 | 266 | 6.4 | 25.7 | 0.00 | 0.00 | 0.00 | 24 | 1022.7 |
| 20260504180336 | 13 | 211 | 9.7 | 24.1 | 0.00 | 0.00 | 0.00 | 26 | 1023.1 |
| 20260504174822 | 13 | 224 | 6.4 | 22.5 | 0.00 | 0.00 | 0.00 | 27 | 1023.1 |
| 20260504173316 | 13 | 271 | 6.4 | 24.1 | 0.00 | 0.00 | 0.00 | 28 | 1022.9 |
| 20260504171830 | 12 | 264 | 11.3 | 22.5 | 0.00 | 0.00 | 0.00 | 30 | 1023.1 |
| 20260504170345 | 12 | 231 | 6.4 | 17.7 | 0.00 | 0.00 | 0.00 | 34 | 1022.9 |
| 20260504160320 | 10 | 285 | 3.2 | 19.3 | 0.00 | 0.00 | 0.00 | 39 | 1023.1 |
| 20260504150338 | 9 | 275 | 8.0 | 11.3 | 0.00 | 0.00 | 0.00 | 41 | 1023.4 |